Regional Weather Roundup
Issued by NWS

Home | Current Version | Previous Version | Graphics & Text | Print | Product List | Glossary On
Versions: 1 2 3 4 5 6 7 8 9 10 11 12 13 14 15 16 17 18 19 20 21 22 23 24 25 26 27 28 29 30 31 32 33 34 35 36 37 38 39 40 41 42 43 44 45 46 47 48 49 50
000
ASUS43 KLMK 231910
RWRKY
KENTUCKY REGIONAL WEATHER ROUNDUP
NATIONAL WEATHER SERVICE LOUISVILLE KY
200 PM EST FRI FEB 23 2018

NOTE "FAIR" INDICATES FEW OR NO CLOUDS BELOW 12,000 FEET
WITH NO SIGNIFICANT WEATHER AND/OR OBSTRUCTIONS TO VISIBILITY.

KYZ001>023-026-027-061>063-070>075-232000-
WESTERN AND SOUTH CENTRAL KENTUCKY

CITY           SKY/WX    TMP DP  RH WIND       PRES   REMARKS
PADUCAH        CLOUDY    57  53  86 SE7       30.25F
HENDERSON      CLOUDY    53  49  86 NW5       30.26F
OWENSBORO      CLOUDY    53  52  96 W7        30.27F FOG
HOPKINSVILLE   FAIR      72  61  67 S12       30.23F
BOWLING GREEN  FAIR      75  64  68 SW14G21   30.25F
GLASGOW        PTSUNNY   74  61  62 SW13      30.26F
$$

KYZ024-025-028>034-038-045-046-053-232000-
NORTH CENTRAL KENTUCKY

CITY           SKY/WX    TMP DP  RH WIND       PRES   REMARKS
LOUISVILLE/SDF CLOUDY    68  62  81 SW13      30.23S
LOUISVILLE/LOU CLOUDY    67  64  90 SW17G23   30.23S
FORT KNOX      CLOUDY    66  63  88 SW16G23   30.25F
$$

KYZ035>037-039>044-047>052-055>060-089>105-232000-
NORTHEAST KENTUCKY

CITY           SKY/WX    TMP DP  RH WIND       PRES   REMARKS
LEXINGTON      FAIR      68  62  81 SW14G24   30.26F
COVINGTON      LGT RAIN  62  61  96 SW9       30.21S FOG
FRANKFORT      PTSUNNY   67  62  84 SW14      30.23F
$$

KYZ054-064>069-076>088-106>120-232000-
SOUTHEAST KENTUCKY

CITY           SKY/WX    TMP DP  RH WIND       PRES   REMARKS
JACKSON        FAIR      75  58  55 VRB6G22   30.29F
LONDON         PTSUNNY   75  58  55 SW12      30.29F
SOMERSET       FAIR      75  59  57 W14       30.30F
MIDDLESBORO    CLOUDY    74  57  53 SW5       30.31F
MONTICELLO     NOT AVBL
$$





USA.gov is the U.S. government's official web portal to all federal, state and local government web resources and services.